Weather History for Milwaukee Timmerman, WI

Change the Weather History Date:

Tuesday, January 22, 2013

  Actual Average Record
Temperature  
Mean Temperature 0 °F -  
Max Temperature 6 °F 33 °F 54 °F (1964)
Min Temperature -7 °F 18 °F -12 °F (1951)
Degree Days  
Heating Degree Days 66    
Moisture  
Dew Point -12 °F    
Average Humidity 60    
Maximum Humidity 66    
Minimum Humidity 47    
Precipitation  
Precipitation 0.00 in - - ()
Sea Level Pressure  
Sea Level Pressure 30.29 in    
Wind  
Wind Speed 11 mph (WNW)    
Max Wind Speed 15 mph    
Max Gust Speed 24 mph    
Visibility 10 miles    
Events      
Averages and records for this station are not official NWS values.
T = Trace of Precipitation, MM = Missing Value Source: NWS Daily Summary

Daily Weather History Graph

Daily Weather History Graph

Search for Another Location

Airport:

Trip Planner

Search our weather history database for the weather conditions in past years. The results will help you decide how hot, cold, wet, or windy it might be!

Date:

Astronomy

Jan. 22, 2013 Rise Set
Actual Time 7:16 AM CST 4:51 PM CST
Civil Twilight 6:45 AM CST 5:22 PM CST
Nautical Twilight 6:10 AM CST 5:57 PM CST
Astronomical Twilight 5:37 AM CST 6:31 PM CST
Moon 1:13 PM CST (1/22) 3:38 AM CST (1/22)
Length of Visible Light 10h 37m
Length of Day
9h 35m
Waxing Gibbous, 83% of the Moon is Illuminated
Jan 22
Waxing Gibbous
Jan 26
Full
Feb 3
Last Quarter
Feb 10
New
Feb 17
First Quarter

Hourly Weather History & Observations

Time (CST) Temp. Windchill Dew Point Humidity Pressure Visibility Wind Dir Wind Speed Gust Speed Precip Events Conditions
12:15 AM -4.0 °F -22.1 °F -14.8 °F 60% 30.25 in 10.0 mi WNW 11.5 mph 24.2 mph N/A   Mostly Cloudy
12:35 AM -4.0 °F -23.7 °F -14.8 °F 60% 30.25 in 10.0 mi NW 13.8 mph 19.6 mph N/A   Scattered Clouds
12:55 AM -4.0 °F -22.1 °F -14.8 °F 60% 30.25 in 10.0 mi NW 11.5 mph - N/A   Clear
1:15 AM -4.0 °F -20.2 °F -13.0 °F 65% 30.26 in 10.0 mi WNW 9.2 mph - N/A   Mostly Cloudy
1:55 AM -4.0 °F -20.2 °F -13.0 °F 65% 30.27 in 7.0 mi WNW 9.2 mph - N/A   Scattered Clouds
2:15 AM -5.8 °F -26.0 °F -14.8 °F 65% 30.28 in 10.0 mi WNW 13.8 mph - N/A   Scattered Clouds
2:35 AM -5.8 °F -24.4 °F -14.8 °F 65% 30.28 in 10.0 mi WNW 11.5 mph - N/A   Scattered Clouds
2:55 AM -5.8 °F -24.4 °F -14.8 °F 65% 30.28 in 10.0 mi WNW 11.5 mph - N/A   Clear
3:15 AM -5.8 °F -22.4 °F -14.8 °F 65% 30.28 in 10.0 mi WNW 9.2 mph 12.7 mph N/A   Clear
3:35 AM -5.8 °F -25.2 °F -16.6 °F 60% 30.28 in 10.0 mi WNW 12.7 mph 17.3 mph N/A   Clear
3:55 AM -5.8 °F -26.0 °F -14.8 °F 65% 30.29 in 10.0 mi WNW 13.8 mph 19.6 mph N/A   Clear
4:15 AM -5.8 °F -21.2 °F -14.8 °F 65% 30.28 in 10.0 mi WNW 8.1 mph 11.5 mph N/A   Clear
4:35 AM -5.8 °F -23.4 °F -16.6 °F 60% 30.29 in 10.0 mi WNW 10.4 mph - N/A   Clear
4:55 AM -5.8 °F -23.4 °F -16.6 °F 60% 30.29 in 10.0 mi WNW 10.4 mph - N/A   Clear
5:15 AM -5.8 °F -23.4 °F -14.8 °F 65% 30.29 in 10.0 mi WNW 10.4 mph - N/A   Clear
5:35 AM -5.8 °F -23.4 °F -16.6 °F 60% 30.29 in 10.0 mi WNW 10.4 mph 16.1 mph N/A   Clear
5:55 AM -5.8 °F -22.4 °F -16.6 °F 60% 30.29 in 10.0 mi WNW 9.2 mph - N/A   Clear
6:45 AM -7.6 °F -24.6 °F -16.6 °F 65% 30.31 in 10.0 mi WNW 9.2 mph - N/A   Clear
7:45 AM -5.8 °F -26.0 °F -16.6 °F 60% 30.32 in 10.0 mi WNW 13.8 mph - N/A   Clear
8:45 AM -4.0 °F -24.5 °F -14.8 °F 60% 30.33 in 10.0 mi West 15.0 mph - N/A   Clear
9:45 AM -2.2 °F -20.7 °F -14.8 °F 55% 30.33 in 10.0 mi WNW 12.7 mph 19.6 mph N/A   Clear
10:45 AM -0.4 °F -19.9 °F -13.0 °F 55% 30.33 in 10.0 mi WSW 15.0 mph - N/A   Clear
11:45 AM 1.4 °F -16.1 °F -11.2 °F 56% 30.32 in 10.0 mi West 12.7 mph 16.1 mph N/A   Clear
12:45 PM 5.0 °F -13.0 °F -11.2 °F 47% 30.30 in 10.0 mi West 15.0 mph 18.4 mph N/A   Clear
1:45 PM 5.0 °F -12.3 °F -9.4 °F 52% 30.28 in 10.0 mi West 13.8 mph 19.6 mph N/A   Clear
2:45 PM 6.8 °F -10.0 °F -9.4 °F 48% 30.29 in 10.0 mi West 13.8 mph 19.6 mph N/A   Scattered Clouds
3:45 PM 5.0 °F -13.0 °F -7.6 °F 56% 30.30 in 10.0 mi West 15.0 mph 20.7 mph N/A   Scattered Clouds
4:45 PM 5.0 °F -12.3 °F -7.6 °F 56% 30.30 in 10.0 mi WNW 13.8 mph - N/A   Clear
5:45 PM 3.2 °F -13.1 °F -7.6 °F 61% 30.30 in 10.0 mi WNW 11.5 mph - N/A   Clear
6:45 PM 3.2 °F -10.3 °F -7.6 °F 61% 30.30 in 10.0 mi WNW 8.1 mph - N/A   Clear
7:45 PM 3.2 °F -10.3 °F -7.6 °F 61% 30.29 in 10.0 mi WNW 8.1 mph - N/A   Clear
8:15 PM 5.0 °F -10.0 °F -7.6 °F 56% 30.29 in 10.0 mi WNW 10.4 mph - N/A   Clear
8:35 PM 5.0 °F -10.0 °F -7.6 °F 56% 30.30 in 10.0 mi WNW 10.4 mph - N/A   Clear
8:45 PM 3.2 °F -11.3 °F -7.6 °F 61% 30.30 in 10.0 mi WNW 9.2 mph - N/A   Clear
8:55 PM 5.0 °F -8.1 °F -7.6 °F 56% 30.29 in 10.0 mi West 8.1 mph - N/A   Clear
9:15 PM 5.0 °F -6.9 °F -7.6 °F 56% 30.29 in 10.0 mi WNW 6.9 mph - N/A   Clear
9:35 PM 5.0 °F -6.9 °F -7.6 °F 56% 30.30 in 10.0 mi WNW 6.9 mph - N/A   Clear
9:55 PM 5.0 °F -6.9 °F -7.6 °F 56% 30.31 in 10.0 mi WNW 6.9 mph - N/A   Clear
10:15 PM 3.2 °F -6.2 °F -7.6 °F 61% 30.31 in 10.0 mi West 4.6 mph - N/A   Clear
10:35 PM 3.2 °F -6.2 °F -7.6 °F 61% 30.31 in 10.0 mi West 4.6 mph - N/A   Clear
10:55 PM 3.2 °F -7.8 °F -7.6 °F 61% 30.31 in 10.0 mi WNW 5.8 mph - N/A   Clear
11:15 PM 3.2 °F -4.2 °F -7.6 °F 61% 30.31 in 10.0 mi West 3.5 mph - N/A   Clear
11:35 PM 3.2 °F -6.2 °F -7.6 °F 61% 30.30 in 10.0 mi West 4.6 mph - N/A   Clear
11:55 PM 3.2 °F -6.2 °F -5.8 °F 66% 30.30 in 10.0 mi West 4.6 mph - N/A   Clear